Regional Weather Roundup
Issued by NWS

Home | Current Version | Previous Version | Graphics & Text | Print | Product List | Glossary On
Versions: 1 2 3 4 5 6 7 8 9 10 11 12 13 14 15 16 17 18 19 20 21 22 23 24 25 26 27 28 29 30 31 32 33 34 35 36 37 38 39 40 41 42 43 44 45 46 47 48 49 50
000
ASUS43 KTOP 191108
RWRKS

WEATHER ROUNDUP FOR KANSAS
NATIONAL WEATHER SERVICE GOODLAND KS
600 AM CDT THU OCT 19 2017

NOTE:  "FAIR" INDICATES FEW OR NO CLOUDS BELOW 12,000 FEET WITH NO
SIGNIFICANT WEATHER AND/OR OBSTRUCTIONS TO VISIBILITY.

KSZ001>006-013>018-027>032-041>047-191200-
NORTHWEST KANSAS

CITY           SKY/WX    TMP DP  RH WIND       PRES   REMARKS
GOODLAND       CLOUDY    38  33  82 CALM      30.07S
HAYS           CLEAR     42  38  85 W3        30.06R
HILL CITY      CLEAR     39  37  92 W3        30.06S
RUSSELL        CLEAR     44  40  85 CALM      30.03S
$$

KSZ061>065-074>080-084>089-191200-
SOUTHWEST KANSAS

CITY           SKY/WX    TMP DP  RH WIND       PRES   REMARKS
DODGE CITY     CLEAR     47  44  90 CALM      30.06R
ELKHART          N/A     47  41  80 W2          N/A
GARDEN CITY    CLOUDY    47  38  71 E3        30.05S
GREAT BEND     CLOUDY    43  42  97 CALM      30.05R
LIBERAL        CLOUDY    45  43  93 N3        30.06R
PRATT          CLEAR     49  43  81 CALM      30.06R
$$

KSZ066>073-081>083-090>101-191200-
SOUTHEAST KANSAS

CITY           SKY/WX    TMP DP  RH WIND       PRES   REMARKS
CHANUTE        CLEAR     53  47  79 S8        30.12R
COFFEYVILLE    CLEAR     50  47  89 S5        30.13R
HUTCHINSON     CLEAR     49  47  93 CALM      30.06R
MEDICINE LODGE   N/A     53  45  74 E9        30.05S
NEWTON         CLEAR     49  45  86 SE7       30.07R
PARSONS        CLEAR     53  46  77 S3        30.14R
WICHITA INTL   CLEAR     49  46  90 S6        30.06S
WICHITA JABRA  CLEAR     51  47  86 S7        30.07R
WICHITA MCCONL CLEAR     53  46  77 S7        30.07R
WINFIELD       CLEAR     52  47  83 SE6       30.10R
$$

KSZ007>012-019>026-033>040-048>060-102>105-191200-
NORTHEAST KANSAS

CITY           SKY/WX    TMP DP  RH WIND       PRES   REMARKS
CONCORDIA      FOG       45  44  97 CALM      30.04R VSB 3/4
EMPORIA        CLEAR     50  45  83 S6        30.08R
LAWRENCE       CLEAR     45  44  97 NE3       30.08S
MANHATTAN      CLEAR     43  42  97 CALM      30.05S FOG
MARYSVILLE     CLEAR     50  46  87 SE3       30.04S
OLATHE IND     CLEAR     49  47  93 S5        30.10R
OLATHE EXE     CLEAR     51  47  86 S5        30.09R
SALINA         CLEAR     50  47  89 S6        30.05R
TOPEKA BILLARD PTCLDY    48  48 100 CALM      30.07S FOG
TOPEKA FORBES  CLEAR     50  47  89 S3        30.07R
$$



USA.gov is the U.S. government's official web portal to all federal, state and local government web resources and services.